Home   Weather   Saint-Hyacinthe   Past weeks

Flag for Canada Past Weather in Saint-Hyacinthe, Quebec, Canada — Yesterday and Last 2 Weeks

Now
30 °F

Overcast.


Feels Like: 23 °F
Forecast: 23 / 31 °F
Wind: 7 mph from North

Location: Saint Hubert Airport

Current Time: Dec 4, 2016 at 1:20:33 am

Latest Report: Dec 4, 2016 at 1:00 am


Visibility: 9 mi

Pressure: 30.16 "Hg

Humidity: 69%

Dew Point: 21 °F

Location of Saint-HyacintheLocation

Past Weather in Saint-Hyacinthe — Graph

°F

Saint-Hyacinthe Temperature Yesterday

Maximum temperature yesterday: 37 °F (at 12:00 am)
Minimum temperature yesterday: 32 °F (at 9:00 pm)
Average temperature yesterday: 35 °F

High & Low Weather Summary for the Past Weeks

 TemperatureHumidityPressure
High52 °F (Nov 19, 3:00 pm)100% (Nov 19, 12:00 am)30.35 "Hg (Nov 19, 12:00 am)
Low25 °F (Nov 28, 11:00 pm)60% (Dec 3, 10:00 pm)29.18 "Hg (Nov 21, 1:00 am)
Average35 °F87%29.87 "Hg
* Reported Nov 19 12:00 am — Dec 4 12:00 am, Saint-Hyacinthe, Weather by CustomWeather, © 2016

Note: Actual official high and low records may vary slightly from our data, if they occured in-between our weather recording intervals... More about our weather records

Advertising

Saint-Hyacinthe Weather History for the Previous 24 Hours

Scroll right to see more
 ConditionsComfort  
Time TempWeatherWind HumidityBarometerVisibility
12:00 am
Sun, Dec 4
30 °FOvercast.10 mph69%30.16 "Hg9 mi
11:00 pm
Sat, Dec 3
32 °FOvercast.8 mph64%30.16 "Hg9 mi
10:00 pm32 °FOvercast.8 mph60%30.14 "Hg9 mi
9:00 pm32 °FOvercast.9 mph64%30.13 "Hg9 mi
8:00 pm34 °FOvercast.9 mph65%30.12 "Hg9 mi
7:00 pm34 °FOvercast.10 mph65%30.10 "Hg9 mi
6:00 pm34 °FMostly cloudy.12 mph65%30.08 "Hg9 mi
5:00 pm34 °FMostly cloudy.12 mph70%30.05 "Hg9 mi
4:00 pm34 °FPassing clouds.14 mph70%30.02 "Hg9 mi
3:00 pm36 °FMostly cloudy.13 mph65%30.00 "Hg9 mi
2:46 pm36 °FOvercast.12 mph65%30.00 "Hg9 mi
2:00 pm36 °FMostly cloudy.14 mph75%29.98 "Hg8 mi
1:01 pm36 °FLight rain. Mostly cloudy.7 mph81%29.97 "Hg9 mi
12:59 pm36 °FMostly cloudy.7 mph81%29.97 "Hg9 mi
12:00 pm37 °FMore clouds than sun.12 mph70%29.96 "Hg9 mi
11:00 am36 °FLight rain. More clouds than sun.12 mph87%29.96 "Hg9 mi
10:57 am36 °FLight rain. More clouds than sun.6 mph87%29.96 "Hg9 mi
10:00 am36 °FLight rain. Mostly cloudy.9 mph87%29.96 "Hg9 mi
9:51 am36 °FLight rain. Cloudy.9 mph87%29.96 "Hg9 mi
9:03 am34 °FLight rain. Fog.3 mph93%29.94 "Hg5 mi
8:59 am34 °FLight rain. Overcast.5 mph93%29.94 "Hg9 mi
8:03 am34 °FLight mixture of precip. More clouds than sun.7 mph93%29.92 "Hg9 mi
7:58 am34 °FLight snow. Mostly cloudy.7 mph93%29.92 "Hg6 mi
7:03 am36 °FLight rain. Overcast.5 mph87%29.90 "Hg9 mi
6:51 am36 °FLight rain. Overcast.8 mph87%29.89 "Hg9 mi
6:00 am36 °FOvercast.8 mph81%29.87 "Hg9 mi
5:00 am36 °FOvercast.10 mph81%29.83 "Hg9 mi
4:00 am36 °FPassing clouds.10 mph81%29.82 "Hg9 mi
3:00 am36 °FPassing clouds.10 mph81%29.80 "Hg9 mi
2:00 am36 °FMostly cloudy.12 mph81%29.78 "Hg9 mi
1:00 am36 °FMostly cloudy.12 mph81%29.75 "Hg9 mi
Weather by CustomWeather, © 2016

See weather overviewHow to use our weather pages